Weather History for Corinth, MS

Change the Weather History Date:

Tuesday, October 9, 2012

  Actual Average Record
Temperature  
Mean Temperature 50 °F -  
Max Temperature 66 °F 78 °F 90 °F (1939)
Min Temperature 35 °F 51 °F 35 °F (1978)
Degree Days  
Heating Degree Days 14    
Moisture  
Dew Point 42 °F    
Average Humidity 76    
Maximum Humidity 100    
Minimum Humidity 45    
Precipitation  
Precipitation 0.00 in - - ()
Sea Level Pressure  
Sea Level Pressure 30.11 in    
Wind  
Wind Speed 1 mph (SSE)    
Max Wind Speed 9 mph    
Max Gust Speed -    
Visibility 8 miles    
Events      
Averages and records for this station are not official NWS values.
T = Trace of Precipitation, MM = Missing Value Source: NWS Daily Summary

Daily Weather History Graph

Daily Weather History Graph

Search for Another Location

Airport:

Trip Planner

Search our weather history database for the weather conditions in past years. The results will help you decide how hot, cold, wet, or windy it might be!

Date:

Astronomy

Oct. 09, 2012 Rise Set
Actual Time 6:55 AM CDT 6:26 PM CDT
Civil Twilight 6:30 AM CDT 6:52 PM CDT
Nautical Twilight 6:01 AM CDT 7:21 PM CDT
Astronomical Twilight 5:31 AM CDT 7:50 PM CDT
Moon 12:45 AM CDT (10/9) 2:41 PM CDT (10/9)
Length of Visible Light 12h 21m
Length of Day
11h 30m
Last Quarter, 36% of the Moon is Illuminated
Oct 9
Last Quarter
Oct 15
New
Oct 21
First Quarter
Oct 29
Full
Nov 6
Last Quarter

Hourly Weather History & Observations

Time (CDT) Temp. Dew Point Humidity Pressure Visibility Wind Dir Wind Speed Gust Speed Precip Events Conditions
12:05 AM 41.0 °F 39.2 °F 93% 30.15 in 9.0 mi Calm Calm - N/A   Clear
12:25 AM 39.2 °F 39.2 °F 100% 30.15 in 10.0 mi Calm Calm - N/A   Clear
12:45 AM 39.2 °F 39.2 °F 100% 30.14 in 10.0 mi Calm Calm - N/A   Mostly Cloudy
1:05 AM 39.2 °F 37.4 °F 93% 30.15 in 3.0 mi Calm Calm - N/A   Overcast
1:25 AM 39.2 °F 37.4 °F 93% 30.15 in 0.8 mi Calm Calm - N/A   Overcast
1:45 AM 39.2 °F 37.4 °F 93% 30.15 in 1.0 mi Calm Calm - N/A   Mostly Cloudy
2:25 AM 37.4 °F 37.4 °F 100% 30.15 in 0.8 mi Calm Calm - N/A   Overcast
2:45 AM 37.4 °F 35.6 °F 93% 30.15 in 3.0 mi Calm Calm - N/A   Overcast
3:05 AM 37.4 °F 35.6 °F 93% 30.15 in 1.8 mi Calm Calm - N/A   Overcast
3:25 AM 37.4 °F 35.6 °F 93% 30.15 in 2.5 mi Calm Calm - N/A   Overcast
3:45 AM 37.4 °F 35.6 °F 93% 30.15 in 3.0 mi Calm Calm - N/A   Overcast
4:05 AM 35.6 °F 35.6 °F 100% 30.15 in 3.0 mi Calm Calm - N/A   Overcast
4:25 AM 37.4 °F 35.6 °F 93% 30.15 in 9.0 mi Calm Calm - N/A   Overcast
4:45 AM 37.4 °F 35.6 °F 93% 30.14 in 10.0 mi Calm Calm - N/A   Overcast
5:05 AM 35.6 °F 35.6 °F 100% 30.14 in 1.8 mi Calm Calm - N/A   Overcast
5:25 AM 35.6 °F 35.6 °F 100% 30.15 in 5.0 mi Calm Calm - N/A   Overcast
5:45 AM 35.6 °F 33.8 °F 93% 30.16 in 5.0 mi Calm Calm - N/A   Overcast
6:05 AM 35.6 °F 33.8 °F 93% 30.16 in 0.8 mi Calm Calm - N/A   Overcast
6:25 AM 35.6 °F 33.8 °F 93% 30.16 in 0.8 mi Calm Calm - N/A   Overcast
6:45 AM 35.6 °F 33.8 °F 93% 30.16 in 9.0 mi Calm Calm - N/A   Mostly Cloudy
7:05 AM 35.6 °F 35.6 °F 100% 30.17 in 8.0 mi Calm Calm - N/A   Partly Cloudy
7:25 AM 37.4 °F 35.6 °F 93% 30.17 in 10.0 mi Calm Calm - N/A   Clear
7:45 AM 39.2 °F 37.4 °F 93% 30.18 in 9.0 mi Calm Calm - N/A   Scattered Clouds
8:05 AM 39.2 °F 37.4 °F 93% 30.17 in 10.0 mi Calm Calm - N/A   Scattered Clouds
8:25 AM 41.0 °F 39.2 °F 93% 30.18 in 7.0 mi Calm Calm - N/A   Clear
8:45 AM 44.6 °F 42.8 °F 93% 30.17 in 10.0 mi Calm Calm - N/A   Clear
9:05 AM 48.2 °F 44.6 °F 87% 30.18 in 10.0 mi Calm Calm - N/A   Clear
9:25 AM 51.8 °F 46.4 °F 82% 30.18 in 10.0 mi SSE 3.5 mph - N/A   Clear
9:45 AM 55.4 °F 46.4 °F 72% 30.18 in 10.0 mi South 3.5 mph - N/A   Clear
10:05 AM 55.4 °F 44.6 °F 67% 30.18 in 10.0 mi SSE 3.5 mph - N/A   Clear
10:25 AM 57.2 °F 44.6 °F 63% 30.17 in 10.0 mi Calm Calm - N/A   Clear
10:45 AM 59.0 °F 41.0 °F 51% 30.17 in 10.0 mi Calm Calm - N/A   Clear
11:05 AM 59.0 °F 41.0 °F 51% 30.16 in 10.0 mi South 4.6 mph - N/A   Partly Cloudy
11:25 AM 59.0 °F 41.0 °F 51% 30.15 in 10.0 mi SSE 4.6 mph - N/A   Clear
11:45 AM 60.8 °F 41.0 °F 48% 30.15 in 10.0 mi SSE 4.6 mph - N/A   Clear
12:05 PM 60.8 °F 41.0 °F 48% 30.14 in 10.0 mi NW 3.5 mph - N/A   Clear
12:25 PM 62.6 °F 42.8 °F 48% 30.13 in 10.0 mi South 5.8 mph - N/A   Partly Cloudy
12:45 PM 62.6 °F 42.8 °F 48% 30.12 in 10.0 mi SSE 3.5 mph - N/A   Partly Cloudy
1:05 PM 62.6 °F 42.8 °F 48% 30.11 in 10.0 mi SE 6.9 mph - N/A   Scattered Clouds
1:25 PM 64.4 °F 42.8 °F 45% 30.10 in 10.0 mi South 4.6 mph - N/A   Partly Cloudy
1:45 PM 64.4 °F 42.8 °F 45% 30.08 in 10.0 mi SE 8.1 mph - N/A   Clear
2:05 PM 64.4 °F 42.8 °F 45% 30.07 in 10.0 mi South 6.9 mph - N/A   Clear
2:25 PM 64.4 °F 42.8 °F 45% 30.07 in 10.0 mi ESE 3.5 mph - N/A   Clear
2:45 PM 64.4 °F 42.8 °F 45% 30.06 in 10.0 mi Calm Calm - N/A   Clear
3:05 PM 66.2 °F 44.6 °F 46% 30.06 in 10.0 mi SSW 3.5 mph - N/A   Clear
3:25 PM 66.2 °F 44.6 °F 46% 30.05 in 10.0 mi SSE 5.8 mph - N/A   Clear
3:45 PM 66.2 °F 44.6 °F 46% 30.05 in 10.0 mi SSW 3.5 mph - N/A   Clear
4:05 PM 66.2 °F 44.6 °F 46% 30.04 in 10.0 mi South 5.8 mph - N/A   Clear
4:25 PM 66.2 °F 44.6 °F 46% 30.04 in 10.0 mi SW 5.8 mph - N/A   Clear
4:45 PM 66.2 °F 44.6 °F 46% 30.03 in 10.0 mi SSW 6.9 mph - N/A   Clear
5:05 PM 64.4 °F 44.6 °F 49% 30.03 in 10.0 mi SSE 9.2 mph - N/A   Clear
5:25 PM 64.4 °F 44.6 °F 49% 30.02 in 10.0 mi SSE 8.1 mph - N/A   Clear
5:45 PM 62.6 °F 44.6 °F 52% 30.02 in 10.0 mi South 5.8 mph - N/A   Clear
6:05 PM 60.8 °F 46.4 °F 59% 30.02 in 10.0 mi South 4.6 mph - N/A   Clear
6:25 PM 60.8 °F 44.6 °F 55% 30.02 in 10.0 mi South 4.6 mph - N/A   Clear
6:45 PM 59.0 °F 46.4 °F 63% 30.02 in 10.0 mi South 4.6 mph - N/A   Clear
7:05 PM 55.4 °F 46.4 °F 72% 30.02 in 10.0 mi SSE 3.5 mph - N/A   Clear
7:25 PM 55.4 °F 46.4 °F 72% 30.02 in 10.0 mi Calm Calm - N/A   Clear
7:45 PM 53.6 °F 46.4 °F 77% 30.03 in 10.0 mi Calm Calm - N/A   Clear
8:05 PM 50.0 °F 46.4 °F 87% 30.04 in 10.0 mi Calm Calm - N/A   Clear
8:25 PM 50.0 °F 46.4 °F 87% 30.05 in 10.0 mi WNW 3.5 mph - N/A   Clear
8:45 PM 50.0 °F 48.2 °F 94% 30.05 in 10.0 mi Calm Calm - N/A   Clear
9:05 PM 48.2 °F 46.4 °F 93% 30.05 in 10.0 mi SE 3.5 mph - N/A   Clear
9:25 PM 48.2 °F 46.4 °F 93% 30.05 in 10.0 mi SE 3.5 mph - N/A   Clear
9:45 PM 48.2 °F 46.4 °F 93% 30.05 in 10.0 mi Calm Calm - N/A   Clear
10:05 PM 48.2 °F 46.4 °F 93% 30.06 in 10.0 mi SSE 3.5 mph - N/A   Partly Cloudy
10:25 PM 48.2 °F 46.4 °F 93% 30.05 in 10.0 mi SE 4.6 mph - N/A   Partly Cloudy
10:45 PM 50.0 °F 48.2 °F 94% 30.05 in 10.0 mi SSE 3.5 mph - N/A   Partly Cloudy
11:05 PM 50.0 °F 48.2 °F 94% 30.06 in 10.0 mi Calm Calm - N/A   Mostly Cloudy
11:25 PM 50.0 °F 48.2 °F 94% 30.07 in 10.0 mi Calm Calm - N/A   Overcast
11:45 PM 51.8 °F 48.2 °F 88% 30.06 in 10.0 mi ESE 3.5 mph - N/A   Overcast